#timestamp,LO_Frequency,Hit,StdDev 
1511910015.4,286047019.5,Y
1511910035.2,286047003.5,P
1511910055.0,286047005.9,N
1511910055.9,286047005.9,N
1511910075.8,286047001.3,N
1511910095.6,286047006.9,N
1511910115.4,286047012.1,N
1511910135.3,286047016.5,Y
1511910155.1,286047011.3,P
1511910175.8,286047011.9,P
1511910195.7,286047013.5,P
1511910215.5,286047011.8,Y
1511910235.3,286047000.8,P
1511910255.2,286047002.6,N
1511910275.9,286047002.2,N
1511910295.7,286047001.9,N
1511910315.6,286047003.8,N
1511910335.4,286047003.9,N
1511910355.2,286047006.9,N
1511910375.1,286047005.5,N
1511910376.0,286047005.5,N
1511910395.8,286047002.7,N
1511910415.6,286047002.8,N
1511910435.4,286046997.0,N
1511910455.3,286046997.3,N
1511910475.1,286046997.3,N
1511910495.8,286046999.3,N
1511910515.7,286047000.1,N
1511910535.5,286047006.4,N
1511910555.3,286047002.8,N
1511910575.2,286046997.4,N
1511910595.9,286046993.5,N
1511910615.7,286046995.7,N
1511910635.6,286046996.3,N
1511910655.4,286046998.0,N
1511910675.2,286046992.9,N
1511910695.1,286046996.0,N
1511910696.0,286046996.0,N
1511910715.8,286046992.7,N
1511910735.6,286046994.4,N
1511910755.4,286046991.8,N
1511910775.3,286046990.9,N
1511910795.1,286046992.0,N
1511910815.8,286046990.8,N
1511910835.7,286046989.4,N
1511910855.5,286046991.0,N
1511910875.3,286046991.0,N
1511910895.2,286046986.9,N
1511910915.9,286046987.1,N
1511910935.7,286046987.6,N
1511910955.6,286046988.2,N
1511910975.4,286046988.7,N
1511910995.2,286046994.0,N
1511911015.1,286046995.1,N
1511911016.0,286046995.1,N
1511911035.8,286046994.8,N
1511911055.6,286046989.2,N
1511911075.4,286046989.3,N
1511911095.3,286046990.3,N
1511911115.1,286046990.0,N
1511911135.9,286046986.4,Y
1511911155.7,286046993.2,P
1511911175.5,286046992.0,P
1511911195.3,286046992.6,P
1511911215.2,286046989.9,Y
1511911235.0,286046997.6,P
1511911235.9,286046997.6,N
1511911255.7,286046993.7,N
1511911275.6,286046993.7,N
1511911295.4,286046995.0,N
1511911315.2,286046995.4,N
1511911335.1,286046994.9,N
1511911336.0,286046994.9,Y
1511911355.8,286047000.5,P
1511911375.6,286047000.7,N
1511911395.5,286047001.6,N
1511911415.3,286047004.1,N
1511911435.1,286047005.9,N
1511911455.9,286047004.6,N
1511911475.7,286047003.9,N
1511911495.5,286046998.1,N
1511911515.4,286047000.2,N
1511911535.2,286047000.2,N
1511911555.0,286046998.5,N
1511911555.9,286046998.5,N
1511911575.8,286046997.8,N
1511911595.6,286046997.1,N
1511911615.4,286046997.8,N
1511911635.2,286046996.3,N
1511911655.1,286046994.4,N
1511911656.0,286046994.4,N
1511911675.8,286046991.9,N
1511911695.6,286046990.3,N
1511911715.5,286046990.3,N
1511911735.3,286046994.7,N
1511911755.1,286046995.6,N
1511911775.9,286046995.6,N
1511911795.7,286046995.6,N
1511911815.5,286046994.6,N
1511911835.4,286046992.7,N
1511911855.2,286046998.0,N
1511911875.0,286046994.0,N
1511911875.9,286046994.0,N
1511911895.8,286046993.6,N
1511911915.6,286046990.5,N
1511911935.4,286046993.1,N
1511911955.2,286046994.4,N
1511911975.1,286046996.0,N
1511911976.0,286046996.0,N
1511911995.8,286046995.1,N
1511912015.6,286046994.8,N
1511912035.5,286046991.2,Y
1511912055.3,286046993.9,P
1511912075.1,286046993.0,P
1511912095.9,286046992.1,P
1511912115.7,286046992.7,Y
1511912135.5,286047002.3,P
1511912155.4,286047003.4,N
1511912175.2,286047006.9,N
1511912195.0,286047008.9,N
1511912195.9,286047008.9,N
1511912215.8,286047005.7,N
1511912235.6,286047004.7,N
1511912255.4,286047006.7,N
1511912275.3,286047005.2,N
1511912295.1,286047013.8,Y
1511912315.8,286047009.3,P
1511912335.7,286047009.0,P
1511912355.5,286047011.5,P
1511912375.3,286047017.5,Y
1511912395.2,286047010.3,P
1511912415.0,286047010.0,P
1511912415.9,286047010.0,P
1511912435.7,286047010.8,Y
1511912455.6,286047000.7,P
1511912475.4,286047005.7,N
1511912495.2,286047009.6,N
1511912515.1,286047013.5,Y
1511912516.0,286047013.5,P
1511912535.8,286047008.7,N
1511912555.6,286047010.6,P
1511912575.5,286047009.4,Y
1511912595.3,286047002.6,P
1511912615.1,286047001.4,N
1511912635.9,286047001.7,N
1511912655.7,286047005.5,N
1511912675.6,286047009.5,Y
1511912695.4,286047013.6,P
1511912715.2,286047010.5,N
1511912735.0,286047010.1,N
1511912736.0,286047010.1,N
1511912755.8,286047012.1,Y
1511912775.6,286046998.2,P
1511912795.5,286046998.2,N
1511912815.3,286046999.7,N
1511912835.1,286046999.4,N
1511912855.8,286046995.1,N
1511912875.7,286046998.9,N
1511912895.5,286046999.2,N
1511912915.3,286046998.9,N
1511912935.2,286046995.3,N
1511912955.9,286046997.7,N
1511912975.7,286046994.7,N
1511912995.6,286046997.9,N
1511913015.4,286046991.9,N
1511913035.2,286046991.2,N
1511913055.1,286046987.8,N
1511913056.0,286046987.8,N
1511913075.8,286046987.5,N
1511913095.6,286046991.2,N
1511913115.4,286046989.6,N
1511913135.3,286046988.0,N
1511913155.1,286046988.2,N
1511913175.8,286046985.8,N
1511913195.7,286046986.3,N
1511913215.5,286046985.8,N
1511913235.3,286046989.8,N
1511913255.2,286046985.5,N
1511913275.9,286046986.7,N
1511913295.7,286046982.3,N
1511913315.6,286046981.8,N
1511913335.4,286046977.5,Y
1511913355.2,286046986.8,P
1511913375.1,286046985.0,P
1511913376.0,286046985.0,P
1511913395.8,286046987.9,Y
1511913415.6,286047002.6,P
1511913435.5,286047001.1,N
1511913455.3,286047002.8,N
1511913475.1,286047002.7,N
1511913495.9,286046999.8,N
1511913515.7,286046999.8,N
1511913535.5,286047003.8,N
1511913555.4,286047004.4,N
1511913575.2,286047001.8,N
1511913595.0,286047000.4,N
1511913595.9,286047000.4,N
